Location: Trois-Rivi�res
(46.3500°N, 72.5500°W)
Time: 20:15:45
(UTC-04:00)

Daily predictions for brighter satellites

Satellite Brightness Start Highest point End
(mag) Time Altitude Azimuth Time Altitude Azimuth Time Altitude Azimuth
USA 267 4.2 19:26:18 10° ENE 19:32:13 38° N 19:38:07 10° NW
Cosmos 1680 Rocket 4.5 19:33:23 10° NNW 19:38:32 53° WSW 19:43:36 10° S
Cosmos 2058 Rocket 3.4 19:34:11 10° SSW 19:38:40 78° W 19:43:13 10° N
Cosmos 1900 4.3 19:34:29 10° SSW 19:39:20 72° ESE 19:44:16 10° NE
HJ-1C 3.4 19:36:37 10° SSE 19:39:58 63° ENE 19:43:22 10° N
COSMO-SKYMED 1 4.1 19:37:41 10° N 19:41:47 41° WNW 19:45:52 10° SW
Cosmos 1937 Rocket 4.0 19:40:21 10° S 19:45:10 39° ESE 19:50:04 10° NE
Lacrosse 4 Rocket 1.9 19:41:31 10° S 19:45:13 36° ESE 19:48:57 10° NE
SL-27 R/B 3.3 19:43:26 10° N 19:46:41 32° ENE 19:49:57 10° SE
Cosmos 2298 Rocket 4.2 19:42:25 10° S 19:47:31 50° ESE 19:52:39 10° NNE
CZ-2D R/B 3.7 19:44:26 10° SE 19:48:03 40° ENE 19:51:43 10° N
Cosmos 1934 Rocket 4.2 19:44:20 10° SSE 19:50:10 47° E 19:55:57 10° NNE
Tiangong 1 1.8 19:49:19 10° WSW 19:52:05 37° S 19:54:27 13° ESE
SJ-6B 3.4 19:49:03 10° S 19:52:44 59° W 19:56:27 10° NNW
Cosmos 1437 Rocket 2.9 19:51:34 10° S 19:55:27 56° E 19:59:28 10° NNE
Okean 3 Rocket 4.4 19:51:43 10° N 19:55:39 31° ENE 19:59:33 10° SE
ALOS 2.6 19:56:14 10° S 20:00:53 70° WSW 20:05:35 10° NNW
USA 186 1.9 19:59:44 16° SE 20:01:03 27° ENE 20:03:04 10° N
CZ-4B DEB 4.0 20:00:40 15° ESE 20:02:20 23° ENE 20:04:53 10° NNE
SeaSat 1 3.6 19:57:58 10° S 20:02:40 44° WSW 20:07:24 10° NW
Cosmos 405 3.2 20:01:02 10° SSW 20:04:33 75° WNW 20:08:06 10° N
Abrixas 2.7 20:01:59 10° WNW 20:04:48 57° N 20:06:39 19° E
Lacrosse 5 2.9 20:00:45 10° S 20:04:51 25° SE 20:08:39 11° ENE
Cosmos 1821 Rocket 4.0 20:01:37 10° S 20:08:00 80° E 20:14:23 10° N
Cosmos 1758 4.4 20:08:08 11° SE 20:11:01 23° E 20:14:13 10° NE
In-Cosmos 22 4.1 20:08:57 10° N 20:14:15 58° ENE 20:19:27 10° SSE
Cosmos 1939 Rocket 3.8 20:14:50 19° ESE 20:17:03 31° ENE 20:20:44 10° N
Cosmos 1844 Rocket 2.7 20:11:36 10° SSW 20:17:16 90° WSW 20:22:56 10° NNE
Resurs 01 Rocket 2.0 20:14:18 10° S 20:18:40 67° WSW 20:23:07 10° NNW
GP-B 3.8 20:16:20 15° SE 20:19:27 32° E 20:23:26 10° NNE
Cosmos 1953 3.2 20:19:44 16° SE 20:22:08 29° E 20:25:40 10° NNE
Cosmos 2278 Rocket 2.4 20:18:30 10° S 20:23:53 46° ESE 20:29:17 10° NE
Cosmos 1833 Rocket 3.5 20:18:54 10° NNW 20:23:57 33° NE 20:26:46 21° E
CZ-2C R/B 1.0 20:21:33 10° N 20:24:00 73° W 20:25:16 15° S
BREEZE-M DEB (TANK) 3.7 20:21:16 10° SSW 20:24:11 41° SE 20:31:44 10° ENE
Cosmos 1812 Rocket 3.6 20:20:32 10° S 20:24:58 82° WNW 20:29:24 10° N
Cosmos 1605 Rocket 4.0 20:19:42 10° S 20:25:50 62° E 20:32:05 10° NNE
Spot 1 4.2 20:25:42 10° SSE 20:30:16 84° ENE 20:35:09 10° NNW
Meteor 1-24 Rocket 4.0 20:25:20 10° NNW 20:30:43 68° W 20:36:16 10° S
Cosmos 1378 4.4 20:27:14 10° NNW 20:30:50 43° W 20:34:24 10° SSW
YAOGAN 6 3.8 20:35:03 25° ENE 20:35:04 25° ENE 20:38:10 10° NNE
H-2A R/B 4.1 20:31:26 10° S 20:35:06 40° W 20:38:50 10° NNW
Cosmos 2123 Rocket 4.1 20:28:51 10° N 20:35:12 82° W 20:41:30 10° S
Cosmos 2150 Rocket 4.2 20:31:16 10° SSW 20:36:24 74° WNW 20:41:35 10° NNE
H-2A R/B 3.9 20:36:31 14° ENE 20:37:11 14° NE 20:39:50 10° NNE
Spot 2 Rocket 4.4 20:32:39 10° S 20:37:36 51° W 20:42:36 10° NNW
Cosmos 1766 Rocket 4.0 20:34:11 10° N 20:38:26 41° ENE 20:39:53 31° ESE
SAR-Lupe-4 3.9 20:35:55 10° S 20:39:28 67° WSW 20:43:03 10° NNW
CZ-3 Stage 3 4.3 20:02:47 10° WSW 20:39:31 40° SSW 20:45:16 20° SE
USA 215 3.3 20:34:07 10° ENE 20:40:32 55° SE 20:46:54 10° SSW
Lacrosse 5 rocket 2.7 20:39:03 10° NW 20:42:25 25° NNE 20:43:45 21° NE
RESURS DK-1 2.8 20:39:40 10° NW 20:43:46 61° WSW 20:46:34 19° S
Cosmos 1076 Rocket 3.4 20:41:00 10° N 20:45:16 64° E 20:47:14 30° SSE
Timation 2 Rocket 4.3 20:40:43 10° NNW 20:46:55 47° NE 20:49:37 30° ESE
Cosmos 158 Rocket 4.3 20:44:54 10° N 20:49:47 46° ENE 20:51:21 35° ESE
Cosmos 2082 Rocket 2.4 20:45:32 10° NNW 20:51:09 54° ENE 20:53:24 34° ESE
Cosmos 1766 4.1 20:48:18 10° SSW 20:52:05 50° WNW 20:55:53 10° N
Cosmos 1153 Rocket 4.5 20:47:20 10° S 20:53:41 70° E 21:00:04 10° NNE
Envisat 2.9 20:51:33 18° SSE 20:55:21 89° ENE 21:00:28 10° NNW
Cosmos 990 Rocket 4.4 20:51:27 10° SSW 20:56:40 66° WNW 21:01:55 10° NNE
Cosmos 1125 Rocket 3.6 20:55:51 10° S 21:00:50 50° ESE 21:05:53 10° NNE
Cosmos 1048 Rocket 3.9 20:57:57 10° NNW 21:03:06 70° ENE 21:04:42 43° SE
SJ-11-01 4.4 21:03:47 24° S 21:06:37 76° WSW 21:11:23 10° NNW
Meteor 1-21 Rocket 4.2 21:01:18 10° NNW 21:07:06 88° W 21:10:58 23° S
BREEZE-M DEB (TANK) 3.0 21:05:06 10° WNW 21:06:50 42° NNW 21:06:50 42° NNW
Cosmos 1544 3.4 21:04:08 11° SSW 21:07:32 65° W 21:11:12 10° N
Meteor 1-4 Rocket 2.5 21:08:19 70° NNE 21:08:19 70° NNE 21:11:27 10° N
Helios 1B rocket 3.0 21:04:15 10° N 21:08:20 58° WNW 21:12:22 10° SSW
Helios 1A 4.3 21:04:35 10° SSW 21:08:28 38° W 21:12:24 10° NNW
Cosmos-2242 3.5 21:10:17 44° NE 21:10:17 44° NE 21:13:33 10° NNE
Cosmos 1743 Rocket 4.2 21:06:25 10° N 21:10:03 40° NE 21:10:03 40° NE
Cosmos 1818 3.5 21:08:47 10° NW 21:14:16 83° SW 21:15:57 46° SSE
USA 267 3.3 21:11:56 37° E 21:14:38 68° NNE 21:21:08 10° NW
H-2A R/B 4.2 21:16:33 14° NE 21:16:33 14° NE 21:17:33 10° NNE
CZ-3B DEB 2.4 21:08:50 10° WSW 21:18:23 77° NNW 21:20:48 30° NE
SPOT 1/Viking Rocket 4.4 21:20:19 34° ENE 21:20:19 34° ENE 21:24:42 10° N
Meteor 1-29 4.2 21:18:47 10° N 21:22:03 41° WNW 21:25:08 11° SW
COSMOS 2487 3.1 21:18:34 10° NNW 21:21:24 54° NNW 21:21:24 54° NNW
Lacrosse 4 Rocket 3.5 21:20:33 10° WSW 21:23:59 26° NW 21:27:28 10° N
ERS-1 Rocket 2.9 21:23:35 52° SSE 21:24:52 87° WSW 21:29:57 10° NNW
Cosmos 2251 Rocket 4.3 21:20:00 10° N 21:24:45 37° NE 21:24:45 37° NE
Cosmos 2344 4.0 21:17:43 10° SW 21:25:23 70° NW 21:34:28 10° NE
ARGOS 3.4 21:25:37 48° ENE 21:25:41 48° ENE 21:30:50 10° N
Cosmos 1459 Rocket 3.8 21:24:01 31° S 21:27:12 74° E 21:33:24 10° NNE
Tiangong 1 4.0 21:25:34 10° WSW 21:25:53 11° WSW 21:25:53 11° WSW
Cosmos 2173 Rocket 3.8 21:25:17 35° S 21:27:59 73° E 21:34:14 10° NNE
Cosmos 1269 Rocket 4.2 21:26:56 10° NNW 21:32:12 68° WSW 21:33:32 48° S
Cosmos 1340 Rocket 3.3 21:29:03 10° N 21:32:19 56° N 21:32:19 56° N
MetOp-A 4.0 21:33:00 69° SE 21:33:34 77° ENE 21:38:56 10° NNW
Cosmos 1674 3.4 21:30:45 10° NNW 21:34:15 49° W 21:34:15 49° W
Cosmos 1408 Rocket 4.2 21:30:51 10° NNW 21:35:13 54° W 21:36:11 44° SW
YAOGAN 11 4.2 21:35:42 77° NNE 21:35:42 77° NNE 21:40:01 10° NNW
Cosmos 1470 4.1 21:43:49 35° N 21:43:49 35° N 21:46:14 10° N
Lacrosse 5 2.0 21:42:23 10° WSW 21:47:27 71° NW 21:47:58 65° N
SPOT 5 3.0 21:49:19 84° NE 21:49:19 84° NE 21:54:36 10° NNW
Cosmos 2016 Rocket 3.8 21:58:20 75° S 21:58:56 89° E 22:05:09 10° N
Cosmos 1725 Rocket 4.2 22:05:08 58° NE 22:05:08 58° NE 22:10:14 10° NNE
NOAA 11 4.4 22:06:22 64° WSW 22:06:29 64° WSW 22:11:58 10° NNW
Meteor 1-11 4.3 22:01:49 10° N 22:06:41 68° N 22:06:41 68° N
Cosmos 1833 Rocket 3.4 22:02:41 10° NW 22:08:02 45° WSW 22:08:29 44° WSW
Cosmos 2278 Rocket 3.8 22:03:04 10° WSW 22:08:08 33° NW 22:13:15 10° NNE
Tsikada Rocket 3.9 22:03:53 10° N 22:09:40 77° NNE 22:09:40 77° NNE
H-2A R/B 2.7 22:17:08 52° N 22:17:08 52° N 22:21:09 10° NNW
SL-08 R/B 4.5 22:17:31 80° W 22:17:34 80° W 22:24:01 10° N
Cosmos 2297 4.4 22:13:24 10° SW 22:18:58 52° WNW 22:24:36 10° NNE
Lacrosse 5 rocket 3.7 22:18:09 10° NW 22:19:28 20° NW 22:19:28 20° NW
USA 215 3.7 22:18:01 14° NE 22:23:36 59° NNW 22:29:59 10° WSW
Terra 3.6 22:29:53 26° N 22:29:53 26° N 22:32:03 10° N
Cosmos 2082 Rocket 3.8 22:30:15 10° NW 22:34:52 26° WSW 22:35:17 25° WSW
USA 267 4.2 22:59:17 39° W 22:59:17 39° W 23:04:04 10° WNW
